| time (UTC) | temp F | wind direction | speed MPH | gust MPH | rain 1hr in | rain 24hr in | rain mn in | humidity % | barometer mb |
| 20260505183043 | 65 | 260 | 2.0 | 6.0 | 0.00 | 0.01 | 0.01 | 83 | 1010.2 |
| 20260505182024 | 66 | 281 | 2.0 | 4.0 | 0.00 | 0.01 | 0.01 | 81 | 1010.2 |
| 20260505181024 | 66 | 217 | 2.0 | 8.0 | 0.00 | 0.01 | 0.01 | 80 | 1010.1 |
| 20260505180043 | 67 | 211 | 3.0 | 7.0 | 0.00 | 0.01 | 0.01 | 79 | 1010.1 |
| 20260505175024 | 67 | 248 | 3.0 | 7.0 | 0.00 | 0.01 | 0.01 | 79 | 1010.1 |
| 20260505174024 | 68 | 239 | 2.0 | 6.0 | 0.00 | 0.01 | 0.01 | 78 | 1010.1 |
| 20260505173023 | 68 | 217 | 2.0 | 6.0 | 0.00 | 0.01 | 0.01 | 77 | 1010.1 |
| 20260505172024 | 69 | 207 | 3.0 | 9.0 | 0.00 | 0.01 | 0.01 | 76 | 1010.1 |
| 20260505171024 | 69 | 241 | 2.0 | 6.0 | 0.00 | 0.01 | 0.01 | 75 | 1010.1 |
| 20260505170024 | 70 | 202 | 5.0 | 10.0 | 0.00 | 0.01 | 0.01 | 75 | 1010.2 |
| 20260505165023 | 70 | 261 | 2.0 | 8.0 | 0.00 | 0.01 | 0.01 | 74 | 1010.3 |
| 20260505164023 | 71 | 246 | 2.0 | 6.0 | 0.00 | 0.01 | 0.01 | 73 | 1010.1 |
| 20260505163103 | 71 | 259 | 2.0 | 6.0 | 0.00 | 0.01 | 0.01 | 73 | 1010.1 |
| 20260505162024 | 72 | 246 | 2.0 | 6.0 | 0.00 | 0.01 | 0.01 | 72 | 1010.0 |
| 20260505161023 | 72 | 228 | 2.0 | 8.0 | 0.00 | 0.01 | 0.01 | 73 | 1010.1 |
| 20260505153043 | 70 | 207 | 5.0 | 10.0 | 0.00 | 0.01 | 0.01 | 74 | 1010.1 |
| 20260505152024 | 70 | 228 | 3.0 | 9.0 | 0.00 | 0.01 | 0.01 | 74 | 1010.2 |
| 20260505151023 | 69 | 241 | 3.0 | 6.0 | 0.00 | 0.01 | 0.01 | 75 | 1010.2 |
| 20260505124024 | 72 | 247 | 3.0 | 7.0 | 0.00 | 0.01 | 0.01 | 67 | 1011.1 |
| 20260505123024 | 73 | 222 | 3.0 | 10.0 | 0.00 | 0.01 | 0.01 | 68 | 1011.2 |
| 20260505122023 | 71 | 252 | 2.0 | 7.0 | 0.00 | 0.01 | 0.01 | 72 | 1011.2 |
| 20260505121023 | 72 | 212 | 4.0 | 10.0 | 0.00 | 0.01 | 0.01 | 68 | 1011.3 |
| 20260505120024 | 73 | 232 | 3.0 | 8.0 | 0.00 | 0.01 | 0.01 | 66 | 1011.3 |
| 20260505115024 | 72 | 230 | 4.0 | 9.0 | 0.00 | 0.01 | 0.01 | 66 | 1011.4 |
| 20260505114024 | 71 | 213 | 4.0 | 14.0 | 0.00 | 0.01 | 0.01 | 70 | 1011.5 |
| 20260505113024 | 72 | 276 | 2.0 | 7.0 | 0.00 | 0.01 | 0.01 | 69 | 1011.5 |
| 20260505112023 | 72 | 257 | 3.0 | 7.0 | 0.00 | 0.01 | 0.01 | 68 | 1011.7 |
| 20260505111023 | 70 | 203 | 3.0 | 10.0 | 0.00 | 0.01 | 0.01 | 69 | 1011.8 |
| 20260505102104 | 70 | 224 | 2.0 | 6.0 | 0.00 | 0.02 | 0.01 | 75 | 1011.8 |
| 20260505101023 | 70 | 249 | 2.0 | 7.0 | 0.00 | 0.02 | 0.01 | 75 | 1011.8 |
| 20260505100024 | 72 | 206 | 4.0 | 10.0 | 0.00 | 0.02 | 0.01 | 73 | 1011.8 |
| 20260505095024 | 71 | 214 | 4.0 | 11.0 | 0.00 | 0.02 | 0.01 | 70 | 1011.9 |
| 20260505094024 | 70 | 241 | 3.0 | 8.0 | 0.00 | 0.02 | 0.01 | 71 | 1011.8 |
| 20260505093024 | 72 | 223 | 3.0 | 6.0 | 0.00 | 0.02 | 0.01 | 71 | 1012.0 |
| 20260505092024 | 72 | 264 | 2.0 | 6.0 | 0.00 | 0.02 | 0.01 | 71 | 1011.8 |
| 20260505091024 | 70 | 224 | 3.0 | 7.0 | 0.00 | 0.02 | 0.01 | 74 | 1011.9 |
| 20260505090023 | 70 | 240 | 3.0 | 7.0 | 0.00 | 0.02 | 0.01 | 76 | 1011.9 |
| 20260505085023 | 70 | 216 | 3.0 | 9.0 | 0.00 | 0.02 | 0.01 | 78 | 1011.8 |
| 20260505084023 | 68 | 202 | 3.0 | 8.0 | 0.00 | 0.02 | 0.01 | 80 | 1011.8 |
| 20260505083043 | 69 | 287 | 2.0 | 4.0 | 0.00 | 0.02 | 0.01 | 81 | 1011.9 |
| 20260505082024 | 68 | 234 | 2.0 | 6.0 | 0.00 | 0.02 | 0.01 | 82 | 1012.0 |
| 20260505081044 | 67 | 219 | 4.0 | 11.0 | 0.00 | 0.02 | 0.01 | 82 | 1012.0 |
| 20260505080043 | 67 | 210 | 1.0 | 3.0 | 0.00 | 0.02 | 0.01 | 83 | 1012.1 |
| 20260505075024 | 66 | 243 | 2.0 | 7.0 | 0.00 | 0.02 | 0.01 | 86 | 1012.1 |
| 20260505074123 | 65 | 221 | 2.0 | 7.0 | 0.00 | 0.02 | 0.01 | 87 | 1012.1 |
| 20260505073023 | 65 | 238 | 2.0 | 7.0 | 0.00 | 0.02 | 0.01 | 87 | 1012.0 |
| 20260505072024 | 65 | 229 | 2.0 | 7.0 | 0.00 | 0.02 | 0.01 | 88 | 1012.0 |
| 20260505071024 | 65 | 197 | 3.0 | 8.0 | 0.00 | 0.02 | 0.01 | 90 | 1012.0 |
| 20260505070044 | 63 | 192 | 1.0 | 3.0 | 0.00 | 0.02 | 0.01 | 94 | 1012.1 |
| 20260505065024 | 63 | 337 | 1.0 | 2.0 | 0.00 | 0.02 | 0.01 | 99 | 1012.1 |
| 20260505064024 | 62 | 236 | 2.0 | 4.0 | 0.00 | 0.02 | 0.01 | 99 | 1012.1 |
| 20260505063024 | 62 | 313 | 1.0 | 3.0 | 0.00 | 0.02 | 0.01 | 99 | 1012.0 |
| 20260505062024 | 62 | 323 | 1.0 | 1.0 | 0.00 | 0.02 | 0.01 | 99 | 1012.1 |
| 20260505061024 | 61 | 348 | 0.0 | 1.0 | 0.00 | 0.02 | 0.01 | 99 | 1012.0 |
| 20260505060024 | 59 | 347 | 0.0 | 1.0 | 0.00 | 0.02 | 0.01 | 99 | 1012.2 |
| 20260505055043 | 61 | 0.0 | 0.0 | 0.00 | 0.02 | 0.01 | 99 | 1012.1 | |
| 20260505054044 | 61 | 0.0 | 0.0 | 0.00 | 0.02 | 0.01 | 99 | 1012.2 | |
| 20260505053024 | 59 | 0.0 | 0.0 | 0.00 | 0.02 | 0.01 | 99 | 1012.1 | |
| 20260505052024 | 58 | 0.0 | 0.0 | 0.00 | 0.02 | 0.01 | 99 | 1012.0 | |
| 20260505051104 | 58 | 0.0 | 0.0 | 0.00 | 0.02 | 0.01 | 99 | 1012.1 | |
| 20260505041024 | 59 | 0.0 | 1.0 | 0.01 | 0.02 | 0.01 | 99 | 1012.0 | |
| 20260505040023 | 59 | 234 | 1.0 | 3.0 | 0.01 | 0.02 | 0.01 | 99 | 1012.0 |
| 20260505035023 | 59 | 240 | 1.0 | 2.0 | 0.01 | 0.02 | 0.01 | 99 | 1012.1 |
| 20260505034023 | 59 | 314 | 1.0 | 2.0 | 0.00 | 0.01 | 0.00 | 99 | 1012.2 |
| 20260505033043 | 59 | 299 | 1.0 | 2.0 | 0.00 | 0.01 | 0.00 | 99 | 1012.2 |
| 20260505032024 | 59 | 321 | 0.0 | 1.0 | 0.00 | 0.01 | 0.00 | 99 | 1012.2 |
| 20260505031024 | 59 | 345 | 0.0 | 1.0 | 0.00 | 0.01 | 0.00 | 99 | 1012.3 |
| 20260505030024 | 59 | 328 | 0.0 | 1.0 | 0.00 | 0.01 | 0.00 | 99 | 1012.4 |
| 20260505025044 | 59 | 323 | 0.0 | 1.0 | 0.00 | 0.01 | 0.00 | 99 | 1012.4 |
| 20260505024024 | 59 | 326 | 1.0 | 1.0 | 0.00 | 0.01 | 0.00 | 99 | 1012.5 |
| 20260505023024 | 59 | 289 | 1.0 | 3.0 | 0.00 | 0.01 | 0.00 | 99 | 1012.5 |
| 20260505022024 | 59 | 294 | 1.0 | 2.0 | 0.00 | 0.01 | 0.00 | 99 | 1012.5 |
| 20260505021024 | 59 | 322 | 1.0 | 2.0 | 0.00 | 0.01 | 0.00 | 99 | 1012.5 |
| 20260505020044 | 59 | 308 | 1.0 | 3.0 | 0.00 | 0.01 | 0.00 | 99 | 1012.5 |
| 20260505015024 | 59 | 247 | 1.0 | 2.0 | 0.00 | 0.01 | 0.00 | 99 | 1012.5 |
| 20260505014024 | 59 | 317 | 0.0 | 2.0 | 0.00 | 0.01 | 0.00 | 99 | 1012.7 |
| 20260505013044 | 59 | 324 | 0.0 | 2.0 | 0.00 | 0.01 | 0.00 | 99 | 1012.7 |
| 20260505012023 | 59 | 315 | 1.0 | 2.0 | 0.00 | 0.01 | 0.00 | 99 | 1012.8 |
| 20260505011043 | 59 | 327 | 0.0 | 1.0 | 0.00 | 0.01 | 0.00 | 99 | 1012.9 |
| 20260505010024 | 59 | 334 | 0.0 | 1.0 | 0.00 | 0.01 | 0.00 | 99 | 1013.1 |
| 20260505005024 | 59 | 323 | 0.0 | 1.0 | 0.00 | 0.01 | 0.00 | 99 | 1013.2 |
| 20260505004024 | 59 | 0.0 | 0.0 | 0.00 | 0.01 | 0.00 | 99 | 1013.3 | |
| 20260505003044 | 59 | 344 | 0.0 | 1.0 | 0.00 | 0.01 | 0.00 | 99 | 1013.3 |
| 20260505002024 | 59 | 315 | 0.0 | 2.0 | 0.00 | 0.01 | 0.00 | 99 | 1013.3 |
| 20260505001024 | 59 | 300 | 1.0 | 2.0 | 0.00 | 0.01 | 0.00 | 99 | 1013.4 |
| 20260505000024 | 59 | 337 | 0.0 | 1.0 | 0.00 | 0.01 | 0.00 | 99 | 1013.5 |
| 20260504235024 | 59 | 277 | 1.0 | 4.0 | 0.00 | 0.01 | 0.01 | 99 | 1013.4 |
| 20260504234026 | 59 | 320 | 1.0 | 2.0 | 0.00 | 0.01 | 0.01 | 99 | 1013.6 |
| 20260504233023 | 59 | 305 | 1.0 | 2.0 | 0.00 | 0.01 | 0.01 | 99 | 1013.5 |
| 20260504232024 | 59 | 213 | 2.0 | 4.0 | 0.00 | 0.01 | 0.01 | 99 | 1013.4 |
| 20260504231023 | 60 | 295 | 1.0 | 2.0 | 0.00 | 0.01 | 0.01 | 99 | 1013.5 |
| 20260504230024 | 60 | 311 | 1.0 | 2.0 | 0.00 | 0.01 | 0.01 | 99 | 1013.5 |
| 20260504225024 | 60 | 231 | 1.0 | 4.0 | 0.00 | 0.01 | 0.01 | 99 | 1013.5 |
| 20260504224044 | 60 | 226 | 2.0 | 4.0 | 0.00 | 0.01 | 0.01 | 99 | 1013.6 |
| 20260504223052 | 60 | 241 | 1.0 | 2.0 | 0.00 | 0.01 | 0.01 | 99 | 1013.6 |
| 20260504222024 | 60 | 240 | 1.0 | 3.0 | 0.00 | 0.01 | 0.01 | 99 | 1013.6 |
| 20260504221024 | 60 | 310 | 1.0 | 2.0 | 0.00 | 0.01 | 0.01 | 99 | 1013.6 |
| 20260504220024 | 60 | 262 | 1.0 | 2.0 | 0.00 | 0.01 | 0.01 | 99 | 1013.6 |
| 20260504215024 | 60 | 211 | 2.0 | 3.0 | 0.00 | 0.01 | 0.01 | 99 | 1013.6 |
| 20260504214024 | 60 | 336 | 0.0 | 2.0 | 0.00 | 0.01 | 0.01 | 99 | 1013.7 |
| 20260504213024 | 60 | 215 | 2.0 | 6.0 | 0.00 | 0.01 | 0.01 | 99 | 1013.6 |
| 20260504212024 | 60 | 209 | 2.0 | 4.0 | 0.00 | 0.01 | 0.01 | 99 | 1013.6 |
| 20260504211024 | 60 | 210 | 2.0 | 3.0 | 0.00 | 0.01 | 0.01 | 99 | 1013.6 |
| 20260504210024 | 60 | 294 | 1.0 | 2.0 | 0.00 | 0.01 | 0.01 | 99 | 1013.6 |
| 20260504205024 | 60 | 0.0 | 0.0 | 0.00 | 0.01 | 0.01 | 98 | 1013.5 | |
| 20260504204023 | 61 | 314 | 0.0 | 2.0 | 0.00 | 0.01 | 0.01 | 98 | 1013.5 |
| 20260504203044 | 61 | 198 | 2.0 | 4.0 | 0.00 | 0.01 | 0.01 | 98 | 1013.4 |
| 20260504202024 | 61 | 289 | 1.0 | 2.0 | 0.00 | 0.01 | 0.01 | 97 | 1013.3 |
| 20260504201024 | 61 | 309 | 0.0 | 2.0 | 0.00 | 0.01 | 0.01 | 97 | 1013.3 |
| 20260504200023 | 62 | 274 | 1.0 | 3.0 | 0.00 | 0.01 | 0.01 | 96 | 1013.2 |
| 20260504195023 | 62 | 291 | 1.0 | 2.0 | 0.00 | 0.01 | 0.01 | 96 | 1013.1 |
| 20260504194023 | 62 | 239 | 1.0 | 4.0 | 0.00 | 0.01 | 0.01 | 95 | 1012.9 |
| 20260504193024 | 63 | 231 | 2.0 | 7.0 | 0.00 | 0.01 | 0.01 | 94 | 1012.7 |
| 20260504192023 | 63 | 238 | 2.0 | 8.0 | 0.00 | 0.01 | 0.01 | 93 | 1012.6 |
| 20260504191023 | 63 | 233 | 2.0 | 4.0 | 0.00 | 0.01 | 0.01 | 93 | 1012.6 |
| 20260504190124 | 63 | 238 | 2.0 | 6.0 | 0.00 | 0.01 | 0.01 | 93 | 1012.5 |
| 20260504185024 | 64 | 253 | 2.0 | 4.0 | 0.00 | 0.01 | 0.01 | 93 | 1012.5 |
| 20260504184024 | 64 | 221 | 3.0 | 7.0 | 0.00 | 0.01 | 0.01 | 92 | 1012.4 |